time_stamp(utc),avg(mph),gust(mph),direction(deg),12m_air_temp(f),sonic_u(cm/s),sonic_v(cm/s),sonic_w(cm/s),pressure,2m_air_temp(f),pyranometer(W/m^2)
"2016-12-23 00:00:21+00",21.8,25.8,,42.4,-517,805,65,1019.82,41.3,0
"2016-12-23 00:05:21+00",22.5,25.5,,42.2,-618,796,63,1019.76,41.2,0
"2016-12-23 00:10:21+00",27.2,31.2,,42.7,-686,1000,81,1020.04,41.5,0
"2016-12-23 00:15:21+00",22.1,26.1,,42.5,-634,752,74,1020.14,41.5,0
"2016-12-23 00:20:21+00",19.0,21.0,,42.2,-590,609,61,1020.13,41.2,0
"2016-12-23 00:25:21+00",19.3,21.3,,41.8,-637,586,51,1020.24,40.9,0
"2016-12-23 00:30:21+00",17.6,20.6,,41.4,-606,503,49,1020.16,40.5,0
"2016-12-23 00:35:21+00",19.7,22.7,,41.9,-657,587,50,1020.32,40.8,0
"2016-12-23 00:40:21+00",19.1,21.1,,42,-621,611,64,1020.44,40.9,0
"2016-12-23 00:45:21+00",19.8,22.8,,42.1,-609,631,52,1020.5,41.1,0
"2016-12-23 00:50:21+00",18.7,21.7,,42.1,-589,584,59,1020.68,41.3,0
"2016-12-23 00:55:21+00",17.3,19.3,,42.1,-499,582,51,1020.63,41.3,0
"2016-12-23 01:00:21+00",17.4,20.4,,41.9,-546,533,52,1020.76,41.2,0
"2016-12-23 01:05:21+00",18.4,21.4,,41.9,-548,609,46,1020.89,41.1,0
"2016-12-23 01:10:21+00",18.6,20.6,,42.1,-595,578,59,1020.88,41.3,0
"2016-12-23 01:15:21+00",21.7,25.7,,42.1,-659,706,48,1020.99,41.2,0
"2016-12-23 01:20:21+00",18.0,21.0,,42,-557,575,46,1020.93,41.2,0
"2016-12-23 01:25:21+00",17.4,20.4,,41.9,-585,523,48,1021.05,40.9,0
"2016-12-23 01:30:21+00",17.7,19.7,,41.8,-626,494,58,1021.11,40.8,0
"2016-12-23 01:35:21+00",15.5,17.5,,41.2,-563,420,47,1021.15,40.2,0
"2016-12-23 01:40:21+00",14.6,16.6,,41.1,-520,389,45,1021.24,40,0
"2016-12-23 01:45:21+00",18.5,21.5,,41.5,-646,519,50,1021.19,40.1,0
"2016-12-23 01:50:21+00",16.3,19.3,,41.2,-578,443,48,1021.28,40,0
"2016-12-23 01:55:21+00",14.6,16.6,,41.1,-526,385,31,1021.35,39.8,0
"2016-12-23 02:00:21+00",13.1,15.1,,40.6,-440,379,40,1021.52,39.4,0
"2016-12-23 02:05:21+00",14.1,15.1,,40.5,-509,385,34,1021.66,39.2,0
"2016-12-23 02:10:21+00",13.5,14.5,,40.5,-482,347,33,1021.72,38.9,0
"2016-12-23 02:15:21+00",12.7,13.7,,40.3,-472,335,40,1021.74,38.7,0
"2016-12-23 02:20:21+00",13.3,15.3,,40.2,-483,342,32,1021.79,38.6,0
"2016-12-23 02:25:21+00",12.9,14.9,,40,-466,354,33,1021.9,38.5,0
"2016-12-23 02:30:21+00",11.9,13.9,,39.9,-439,297,27,1021.96,38.3,0
"2016-12-23 02:35:21+00",12.7,13.7,,39.8,-501,273,27,1021.99,38.2,0
"2016-12-23 02:40:21+00",11.7,13.7,,39.6,-455,261,21,1022.18,37.9,0
"2016-12-23 02:45:21+00",11.9,13.9,,39.5,-479,234,25,1022.37,37.8,0
"2016-12-23 02:50:21+00",12.2,14.2,,39.4,-492,201,28,1022.38,37.8,0
"2016-12-23 02:55:21+00",11.9,13.9,,38.9,-499,183,29,1022.53,37.3,0
"2016-12-23 03:00:21+00",12.5,13.5,,38.8,-515,196,29,1022.58,37,0
"2016-12-23 03:05:21+00",12.5,13.5,,38.9,-520,217,23,1022.68,36.8,0
"2016-12-23 03:10:21+00",11.8,12.8,,38.8,-501,194,27,1022.95,36.8,0
"2016-12-23 03:15:21+00",11.5,13.5,,38.7,-490,159,28,1023,36.7,0
"2016-12-23 03:20:21+00",12.1,13.1,,38.8,-512,169,29,1023.01,36.7,0
"2016-12-23 03:25:21+00",10.5,11.5,,38.5,-439,160,27,1023.03,36.6,0
"2016-12-23 03:30:21+00",11.0,12.0,,38.5,-471,137,27,1023.08,36.5,0
"2016-12-23 03:35:21+00",9.0,10.0,,38,-395,78,19,1023.16,36.2,0
"2016-12-23 03:40:21+00",8.7,10.7,,37.7,-378,64,14,1023.23,35.8,0
"2016-12-23 03:45:21+00",8.5,9.5,,37.5,-368,66,18,1023.22,35.4,0
"2016-12-23 03:50:21+00",9.2,10.2,,37.6,-400,67,21,1023.3,35.1,0
"2016-12-23 03:55:21+00",7.9,8.9,,37.3,-342,49,10,1023.44,35,0
"2016-12-23 04:00:21+00",8.8,9.8,,37,-380,61,13,1023.49,34.8,0
"2016-12-23 04:05:21+00",7.9,8.9,,37,-346,67,16,1023.4,34.7,0
"2016-12-23 04:10:21+00",8.0,9.0,,37.1,-333,96,15,1023.6,34.6,0
"2016-12-23 04:15:21+00",9.1,10.1,,37.2,-368,146,18,1023.69,34.7,0
"2016-12-23 04:20:21+00",8.7,9.7,,37.3,-363,138,12,1023.66,34.7,0
"2016-12-23 04:25:21+00",9.2,10.2,,37.3,-373,159,20,1023.65,34.7,0
"2016-12-23 04:30:21+00",8.7,10.7,,37.5,-374,107,24,1023.69,34.9,0
"2016-12-23 04:35:21+00",8.9,9.9,,37.4,-384,109,13,1023.77,35.1,0
"2016-12-23 04:40:21+00",9.1,10.1,,37.4,-389,107,23,1023.81,35.2,0
"2016-12-23 04:45:21+00",8.9,9.9,,37.3,-376,132,18,1023.82,35.1,0
"2016-12-23 04:50:21+00",9.5,10.5,,37.3,-398,122,18,1023.83,35,0
"2016-12-23 04:55:21+00",9.9,11.9,,37.4,-408,153,17,1023.93,35.1,0
"2016-12-23 05:00:21+00",9.0,10.0,,37.5,-359,174,17,1023.83,35.1,0
"2016-12-23 05:05:21+00",9.6,10.6,,37.5,-379,205,16,1023.86,35.2,0
"2016-12-23 05:10:21+00",9.5,10.5,,37.4,-389,177,24,1023.99,35.2,0
"2016-12-23 05:15:21+00",9.2,11.2,,37.3,-383,148,18,1024.09,35.3,0
"2016-12-23 05:20:21+00",7.8,9.8,,37.1,-332,94,18,1024.26,35.3,0
"2016-12-23 05:25:21+00",7.0,8.0,,36.9,-294,90,19,1024.34,35.2,0
"2016-12-23 05:30:21+00",7.8,8.8,,36.9,-316,130,13,1024.47,35,0
"2016-12-23 05:35:21+00",7.5,8.5,,37,-311,130,16,1024.63,34.7,0
"2016-12-23 05:40:21+00",7.8,8.8,,37,-326,112,18,1024.76,34.6,0
"2016-12-23 05:45:21+00",7.9,8.9,,36.8,-334,116,16,1024.82,34.5,0
"2016-12-23 05:50:21+00",8.4,8.4,,36.7,-350,140,21,1024.85,34.3,0
"2016-12-23 05:55:21+00",8.6,8.6,,36.6,-359,132,20,1024.89,34.2,0
"2016-12-23 06:00:21+00",8.4,9.4,,36.6,-354,126,20,1025.12,34.1,0
"2016-12-23 06:05:21+00",7.8,7.8,,36.4,-338,91,21,1025.2,33.8,0
"2016-12-23 06:10:21+00",7.7,8.7,,36.2,-335,81,20,1025.16,33.3,0
"2016-12-23 06:15:21+00",7.1,7.1,,36.1,-306,78,17,1025.21,32.9,0
"2016-12-23 06:20:21+00",7.3,8.3,,36,-314,84,22,1025.28,32.8,0
"2016-12-23 06:25:21+00",7.4,8.4,,35.9,-325,58,18,1025.5,32.8,0
"2016-12-23 06:30:21+00",7.5,7.5,,35.8,-331,28,15,1025.71,32.6,0
"2016-12-23 06:35:21+00",8.9,8.9,,35.6,-396,39,17,1025.65,32.5,0
"2016-12-23 06:40:21+00",10.8,11.8,,35.6,-479,57,23,1025.77,32.5,0
"2016-12-23 06:45:21+00",9.8,10.8,,35.4,-428,91,20,1025.8,32.8,0
"2016-12-23 06:50:21+00",9.6,10.6,,35.5,-420,79,20,1025.86,33.1,0
"2016-12-23 06:55:21+00",9.9,10.9,,35.5,-433,101,23,1025.86,33.4,0
"2016-12-23 07:00:21+00",7.9,8.9,,35.6,-348,80,13,1025.97,33.6,0
"2016-12-23 07:05:21+00",7.6,8.6,,35.6,-336,29,17,1026.17,33.4,0
"2016-12-23 07:10:21+00",9.3,10.3,,35.7,-410,8,16,1026.44,33,0
"2016-12-23 07:15:21+00",9.7,10.7,,35.8,-418,-52,11,1026.55,32.9,0
"2016-12-23 07:20:21+00",10.4,11.4,,35.6,-452,-37,12,1026.68,32.8,0
"2016-12-23 07:25:21+00",10.0,11.0,,35.5,-442,4,18,1026.77,32.9,0
"2016-12-23 07:30:21+00",10.2,11.2,,35.4,-442,-4,15,1026.64,33.3,0
"2016-12-23 07:35:21+00",10.5,11.5,,35.4,-461,-25,19,1026.77,33.4,0
"2016-12-23 07:40:21+00",10.4,11.4,,35.1,-446,-63,12,1026.89,33.3,0
"2016-12-23 07:45:21+00",11.0,12.0,,34.9,-467,-83,7,1026.99,32.9,0
"2016-12-23 07:50:21+00",12.6,12.6,,34.7,-513,-129,13,1027.11,32.6,0
"2016-12-23 07:55:21+00",11.3,12.3,,34.7,-465,-111,11,1027.17,32.7,0
"2016-12-23 08:00:21+00",10.8,10.8,,34.7,-456,-84,10,1027.21,32.9,0
"2016-12-23 08:05:21+00",11.1,12.1,,34.6,-462,-89,12,1027.16,32.9,0
"2016-12-23 08:10:21+00",10.5,11.5,,34.6,-444,-76,12,1027.26,32.9,0
"2016-12-23 08:15:21+00",11.2,12.2,,34.7,-462,-97,8,1027.44,32.8,0
"2016-12-23 08:20:21+00",9.4,10.4,,34.8,-404,-42,8,1027.34,32.7,0
"2016-12-23 08:25:21+00",9.3,10.3,,34.7,-399,-50,10,1027.5,32.7,0
"2016-12-23 08:30:21+00",9.0,10.0,,34.6,-387,-50,12,1027.56,32.7,0
"2016-12-23 08:35:21+00",9.2,10.2,,34.6,-399,-16,10,1027.51,32.6,0
"2016-12-23 08:40:21+00",9.0,10.0,,34.6,-395,15,17,1027.49,32.6,0
"2016-12-23 08:45:21+00",9.8,10.8,,34.4,-435,7,19,1027.48,32.7,0
"2016-12-23 08:50:21+00",10.7,11.7,,34.3,-474,12,24,1027.63,32.8,0
"2016-12-23 08:55:21+00",9.2,10.2,,34.2,-410,44,21,1027.62,32.7,0
"2016-12-23 09:00:21+00",10.2,11.2,,34.2,-447,-27,18,1027.68,32.6,0
"2016-12-23 09:05:21+00",9.9,10.9,,34.6,-436,-16,20,1027.69,32.9,0
"2016-12-23 09:10:21+00",9.6,10.6,,34.4,-422,58,25,1027.78,33,0
"2016-12-23 09:15:21+00",9.8,10.8,,34.1,-438,35,17,1027.74,32.9,0
"2016-12-23 09:20:21+00",10.0,11.0,,33.9,-423,119,29,1027.78,33,0
"2016-12-23 09:25:21+00",9.3,10.3,,33.6,-390,137,26,1027.74,33,0
"2016-12-23 09:30:21+00",11.0,13.0,,33.8,-465,175,22,1027.74,32.9,0
"2016-12-23 09:35:21+00",10.4,12.4,,34,-447,114,33,1027.81,33.1,0
"2016-12-23 09:40:21+00",9.3,10.3,,33.9,-412,70,23,1027.94,33.2,0
"2016-12-23 09:45:21+00",8.8,9.8,,33.9,-382,91,15,1027.91,33,0
"2016-12-23 09:50:21+00",9.4,10.4,,33.8,-410,86,17,1028.1,33,0
"2016-12-23 09:55:21+00",10.1,11.1,,33.6,-455,26,25,1028.17,32.8,0
"2016-12-23 10:00:21+00",8.5,11.5,,33.4,-361,97,9,1028.27,32.4,0
"2016-12-23 10:05:21+00",7.9,8.9,,33.5,-332,111,48,1028.21,32.2,0
"2016-12-23 10:10:21+00",9.2,10.2,,33.3,-398,104,23,1028.37,32.1,0
"2016-12-23 10:15:21+00",9.0,10.0,,33.2,-386,107,33,1028.46,32.2,0
"2016-12-23 10:20:21+00",8.0,8.0,,33.2,-327,143,20,1028.6,32.1,0
"2016-12-23 10:25:21+00",7.7,9.7,,33.3,-331,69,27,1028.6,32,0
"2016-12-23 10:30:21+00",7.7,8.7,,33.2,-325,101,18,1028.76,31.9,0
"2016-12-23 10:35:21+00",8.2,9.2,,33,-342,118,18,1028.71,31.8,0
"2016-12-23 10:40:21+00",8.0,9.0,,33.1,-299,187,17,1028.74,31.5,0
"2016-12-23 10:45:21+00",8.4,9.4,,33.2,-304,220,21,1028.97,31.3,0
"2016-12-23 10:50:21+00",9.3,10.3,,33.3,-337,242,22,1029.07,31.5,0
"2016-12-23 10:55:21+00",10.2,12.2,,33.6,-391,230,23,1028.96,31.7,0
"2016-12-23 11:00:21+00",9.3,10.3,,33.4,-371,179,23,1028.95,31.8,0
"2016-12-23 11:05:21+00",9.1,11.1,,33.3,-368,156,26,1029.01,31.9,0
"2016-12-23 11:10:21+00",8.6,9.6,,33.2,-346,167,26,1029.27,31.9,0
"2016-12-23 11:15:21+00",8.4,9.4,,33,-324,191,20,1029.4,31.6,0
"2016-12-23 11:20:21+00",9.2,10.2,,32.7,-361,190,21,1029.42,31.5,0
"2016-12-23 11:25:21+00",9.0,10.0,,32.5,-354,186,34,1029.47,31.4,0
"2016-12-23 11:30:21+00",10.8,11.8,,32.6,-438,204,29,1029.59,31.4,0
"2016-12-23 11:35:21+00",9.6,10.6,,32.6,-369,221,26,1029.63,31.5,0
"2016-12-23 11:40:21+00",11.5,13.5,,32.6,-436,277,32,1029.73,31.6,0
"2016-12-23 11:45:21+00",11.5,13.5,,32.6,-424,297,35,1029.8,31.8,0
"2016-12-23 11:50:21+00",13.1,15.1,,32.5,-509,307,35,1029.93,31.7,0
"2016-12-23 11:55:21+00",14.3,16.3,,32.5,-510,380,34,1029.94,31.7,0
"2016-12-23 12:00:21+00",13.2,15.2,,32.5,-482,324,43,1030.04,31.8,0
"2016-12-23 12:05:21+00",13.1,15.1,,32.6,-458,367,33,1030.03,31.8,0
"2016-12-23 12:10:21+00",13.7,15.7,,32.6,-500,359,32,1030.13,31.9,0
"2016-12-23 12:15:21+00",13.6,15.6,,32.5,-509,355,44,1030.05,31.8,0
"2016-12-23 12:20:21+00",14.9,15.9,,32.4,-542,393,32,1030.04,31.7,0
"2016-12-23 12:25:21+00",12.1,13.1,,32.4,-457,294,39,1030.25,31.7,0
"2016-12-23 12:30:21+00",12.1,14.1,,32.4,-446,323,25,1030.46,31.7,0
"2016-12-23 12:35:21+00",12.7,15.7,,32.6,-463,314,38,1030.48,31.8,0
"2016-12-23 12:40:21+00",10.7,13.7,,32.8,-405,262,47,1030.5,32.1,0.2
"2016-12-23 12:45:21+00",12.6,13.6,,33,-471,318,34,1030.49,32.4,1.3
"2016-12-23 12:50:21+00",10.5,12.5,,33,-382,266,31,1030.6,32.8,11.7
"2016-12-23 12:55:21+00",12.1,14.1,,33.1,-420,324,24,1030.52,33,23.6
"2016-12-23 13:00:21+00",11.9,13.9,,33,-401,358,38,1030.53,33.2,35.9
"2016-12-23 13:05:21+00",13.5,15.5,,32.8,-449,396,31,1030.5,33.1,49.5
"2016-12-23 13:10:21+00",13.3,15.3,,32.9,-484,352,38,1030.41,33.3,56.4
"2016-12-23 13:15:21+00",12.7,15.7,,33.1,-460,336,53,1030.56,33.5,53.3
"2016-12-23 13:20:21+00",13.0,14.0,,33.3,-475,339,44,1030.77,33.7,67.3
"2016-12-23 13:25:21+00",13.9,14.9,,33.3,-510,350,35,1030.88,33.8,44.9
"2016-12-23 13:30:21+00",14.5,16.5,,33.5,-515,398,37,1030.86,33.7,44.6
"2016-12-23 13:35:21+00",14.4,16.4,,33.8,-543,353,28,1030.86,34,67.9
"2016-12-23 13:40:21+00",14.2,17.2,,33.9,-556,313,29,1030.94,34.2,62.9
"2016-12-23 13:45:21+00",14.1,16.1,,34.1,-540,324,26,1031.06,34.5,108.1
"2016-12-23 13:50:21+00",13.2,17.2,,34.3,-566,206,69,1031.22,34.9,115
"2016-12-23 13:55:21+00",14.1,16.1,,34.2,-609,229,56,1031.42,34.8,97.3
"2016-12-23 14:00:21+00",13.4,16.4,,34.1,-532,289,45,1031.16,34.6,119.4
"2016-12-23 14:05:21+00",13.5,15.5,,34.7,-527,297,39,1031.32,35.2,148.8
"2016-12-23 14:10:21+00",13.4,16.4,,34.8,-495,352,45,1031.18,35.6,139
"2016-12-23 14:15:21+00",13.7,15.7,,35.1,-540,310,37,1031.27,36,164.6
"2016-12-23 14:20:21+00",15.6,17.6,,35.4,-592,359,25,1031.12,36.4,136.9
"2016-12-23 14:25:21+00",14.5,17.5,,35.8,-585,288,38,1031.3,36.6,139.3
"2016-12-23 14:30:21+00",14.6,16.6,,35.9,-578,283,20,1031.43,36.7,137.5
"2016-12-23 14:35:21+00",13.3,16.3,,36.2,-530,274,32,1031.45,37,121.8
"2016-12-23 14:40:21+00",13.2,15.2,,36.5,-517,284,41,1031.59,37.2,162.3
"2016-12-23 14:45:21+00",13.6,15.6,,37,-546,279,39,1031.66,37.8,193.9
"2016-12-23 14:50:21+00",13.4,14.4,,37.4,-542,241,23,1031.73,38.3,171.7
"2016-12-23 14:55:21+00",13.4,15.4,,37.5,-559,217,29,1031.76,38.5,198.6
"2016-12-23 15:00:21+00",12.2,14.2,,38,-505,186,40,1031.71,38.9,198.3
"2016-12-23 15:05:21+00",12.2,14.2,,38,-520,198,61,1031.77,39,210.3
"2016-12-23 15:10:21+00",12.7,14.7,,38.2,-535,178,48,1031.86,39.2,204.8
"2016-12-23 15:15:21+00",12.4,14.4,,38.4,-545,127,35,1031.94,39.4,219.6
"2016-12-23 15:20:21+00",12.7,14.7,,38.7,-532,190,36,1031.8,39.7,224.4
"2016-12-23 15:25:21+00",12.7,13.7,,38.9,-544,173,34,1031.49,40.1,228.5
"2016-12-23 15:30:21+00",12.5,14.5,,39.2,-521,200,21,1031.45,40.4,234.4
"2016-12-23 15:35:21+00",11.0,13.0,,39.7,-458,164,21,1031.51,41,236.4
"2016-12-23 15:40:21+00",9.9,11.9,,40,-421,164,30,1031.48,41.2,167.4
"2016-12-23 15:45:21+00",11.3,12.3,,40,-476,179,37,1031.42,41.1,81.7
"2016-12-23 15:50:21+00",9.8,10.8,,40,-412,153,30,1031.31,41.2,139.1
"2016-12-23 15:55:21+00",10.8,12.8,,40.1,-454,130,26,1031.15,41.4,248.9
"2016-12-23 16:00:21+00",11.1,12.1,,40.4,-478,120,24,1031.02,41.9,235.6
"2016-12-23 16:05:21+00",11.2,13.2,,40.6,-490,102,46,1030.94,42.2,251
"2016-12-23 16:10:21+00",13.0,14.0,,40.4,-568,136,37,1030.81,42.3,254.2
"2016-12-23 16:15:21+00",12.0,15.0,,40.4,-534,113,59,1030.8,42.2,258
"2016-12-23 16:20:21+00",13.0,14.0,,40.5,-569,136,31,1030.64,42.3,258.4
"2016-12-23 16:25:21+00",12.5,14.5,,40.8,-541,126,23,1030.51,42.4,263.8
"2016-12-23 16:30:21+00",12.2,13.2,,41,-522,143,34,1030.55,42.8,263
"2016-12-23 16:35:21+00",10.8,11.8,,41.4,-484,50,61,1030.33,43,265.5
"2016-12-23 16:40:21+00",11.8,12.8,,41.5,-526,18,19,1030.18,43.1,266.6
"2016-12-23 16:45:21+00",12.4,13.4,,41.7,-539,149,39,1030.19,43.4,263.1
"2016-12-23 16:50:21+00",11.5,12.5,,41.7,-500,136,42,1030.05,43.6,263.2
"2016-12-23 16:55:21+00",12.6,13.6,,42,-552,67,15,1029.85,43.6,263.8
"2016-12-23 17:00:21+00",14.4,15.4,,41.8,-629,154,33,1029.94,43.7,267.9
"2016-12-23 17:05:21+00",13.4,14.4,,41.9,-580,143,29,1029.91,43.8,267
"2016-12-23 17:10:21+00",12.3,13.3,,42.1,-541,132,32,1029.8,43.9,264.6
"2016-12-23 17:15:21+00",12.9,13.9,,42.3,-554,178,37,1029.55,44.1,249
"2016-12-23 17:20:21+00",11.9,13.9,,42.6,-509,183,38,1029.48,44.4,263.8
"2016-12-23 17:25:21+00",11.9,12.9,,42.7,-493,181,18,1029.46,44.6,264.2
"2016-12-23 17:30:21+00",11.2,13.2,,43.1,-456,209,33,1029.43,44.9,263.3
"2016-12-23 17:35:21+00",10.2,11.2,,43.2,-411,220,31,1029.3,45.3,259.8
"2016-12-23 17:40:21+00",8.7,10.7,,43.5,-352,172,36,1029.25,45.4,243.2
"2016-12-23 17:45:21+00",8.6,9.6,,43.2,-362,143,35,1029.23,45.4,236.2
"2016-12-23 17:50:21+00",8.8,9.8,,43.2,-380,78,33,1029.31,45.4,249.6
"2016-12-23 17:55:21+00",8.7,10.7,,43.3,-378,89,31,1029.27,45.4,251.5
"2016-12-23 18:00:21+00",10.7,11.7,,43.6,-441,184,23,1029.13,45.5,243.7
"2016-12-23 18:05:21+00",10.6,11.6,,43.6,-450,164,32,1029.1,45.5,252.7
"2016-12-23 18:10:21+00",8.3,10.3,,43.9,-332,159,63,1029.16,45.6,238.9
"2016-12-23 18:15:21+00",9.7,10.7,,44.1,-405,147,28,1029.22,45.8,227
"2016-12-23 18:20:21+00",9.4,10.4,,43.9,-395,147,27,1029.16,45.6,221.7
"2016-12-23 18:25:21+00",8.9,10.9,,44.1,-368,158,42,1029.16,45.6,210.1
"2016-12-23 18:30:21+00",8.3,10.3,,44,-352,122,46,1029.21,45.5,201.9
"2016-12-23 18:35:21+00",8.3,10.3,,44.1,-348,113,22,1029.24,45.5,175.8
"2016-12-23 18:40:21+00",7.4,8.4,,44.2,-317,95,15,1029.24,45.5,192.4
"2016-12-23 18:45:21+00",8.4,9.4,,44.5,-355,119,24,1029.11,45.6,164.8
"2016-12-23 18:50:21+00",8.3,10.3,,44.6,-335,166,47,1029.2,45.8,131.4
"2016-12-23 18:55:21+00",8.5,9.5,,44.6,-350,149,20,1029.27,45.7,131.6
"2016-12-23 19:00:21+00",8.2,9.2,,44.5,-345,122,17,1029.27,45.5,143.8
"2016-12-23 19:05:21+00",9.0,10.0,,44.5,-377,136,17,1029.28,45.4,130.4
"2016-12-23 19:10:21+00",9.1,10.1,,44.5,-350,198,14,1029.33,45.4,135.7
"2016-12-23 19:15:21+00",9.3,10.3,,44.7,-351,199,11,1029.3,45.7,137.9
"2016-12-23 19:20:21+00",8.6,10.6,,44.5,-334,174,28,1029.42,45.7,97.2
"2016-12-23 19:25:21+00",8.0,9.0,,44.4,-296,182,19,1029.43,45.6,119.9
"2016-12-23 19:30:21+00",7.1,8.1,,44.7,-306,71,19,1029.6,45.8,113.6
"2016-12-23 19:35:21+00",8.5,10.5,,44.7,-326,182,33,1029.57,45.7,94.8
"2016-12-23 19:40:21+00",8.5,9.5,,44.6,-332,182,28,1029.55,45.6,73.6
"2016-12-23 19:45:21+00",6.0,7.0,,44.6,-231,118,28,1029.51,45.5,63
"2016-12-23 19:50:21+00",6.5,7.5,,44.3,-266,123,21,1029.56,45.2,53.2
"2016-12-23 19:55:21+00",7.5,8.5,,44.2,-303,122,17,1029.69,44.8,65
"2016-12-23 20:00:21+00",9.0,10.0,,44.2,-353,168,27,1029.72,44.5,33.1
"2016-12-23 20:05:21+00",7.1,8.1,,43.7,-304,75,20,1029.75,44,28.3
"2016-12-23 20:10:21+00",7.3,8.3,,43.7,-311,90,16,1029.85,43.6,28.3
"2016-12-23 20:15:21+00",6.4,8.4,,43.8,-247,119,16,1029.83,43.4,25.8
"2016-12-23 20:20:21+00",6.3,7.3,,43.9,-246,135,14,1029.69,43.5,25.1
"2016-12-23 20:25:21+00",6.1,7.1,,44.1,-237,119,13,1029.7,43.6,20
"2016-12-23 20:30:21+00",6.7,7.7,,44.1,-256,141,15,1029.69,43.6,13.8
"2016-12-23 20:35:21+00",6.3,6.3,,44.5,-270,79,14,1029.86,43.5,10
"2016-12-23 20:40:21+00",6.3,6.3,,44.3,-264,88,16,1029.8,43.2,4.6
"2016-12-23 20:45:21+00",6.8,7.8,,43.9,-287,79,14,1029.97,42.9,1.9
"2016-12-23 20:50:21+00",6.0,7.0,,43.5,-257,-3,18,1030.08,42.6,0
"2016-12-23 20:55:21+00",5.3,6.3,,43.2,-223,33,16,1030.13,42.3,0
"2016-12-23 21:00:21+00",6.1,6.1,,43,-256,-38,5,1030.17,42.1,0
"2016-12-23 21:05:21+00",6.1,6.1,,43.2,-242,-57,4,1030.04,42,0
"2016-12-23 21:10:21+00",5.9,5.9,,43.3,-256,-12,2,1030.05,41.8,0
"2016-12-23 21:15:21+00",7.4,8.4,,43.8,-309,-59,4,1030.17,41.5,0
"2016-12-23 21:20:21+00",7.2,8.2,,43.9,-307,-40,7,1030.29,41.1,0
"2016-12-23 21:25:21+00",7.9,8.9,,43.5,-311,-83,8,1030.29,40.9,0
"2016-12-23 21:30:21+00",7.2,8.2,,43.2,-291,-91,7,1030.18,40.7,0
"2016-12-23 21:35:21+00",7.9,8.9,,42.9,-338,-45,8,1030.18,40.3,0
"2016-12-23 21:40:21+00",8.2,9.2,,42.7,-353,-38,8,1030.39,40,0
"2016-12-23 21:45:21+00",7.8,7.8,,42.6,-325,-60,5,1030.48,39.8,0
"2016-12-23 21:50:21+00",9.1,10.1,,42.4,-371,-83,8,1030.57,39.6,0
"2016-12-23 21:55:21+00",9.8,9.8,,42.4,-415,-68,9,1030.67,39.5,0
"2016-12-23 22:00:21+00",9.1,10.1,,42.6,-391,-27,10,1030.78,39.4,0
"2016-12-23 22:05:21+00",7.9,8.9,,42.7,-334,-52,6,1030.91,39.7,0
"2016-12-23 22:10:21+00",8.3,9.3,,42.7,-342,-71,3,1030.87,39.7,0
"2016-12-23 22:15:21+00",8.8,9.8,,42.7,-353,-85,6,1030.79,39.6,0
"2016-12-23 22:20:21+00",8.7,8.7,,42.8,-379,-21,10,1030.88,39.3,0
"2016-12-23 22:25:21+00",8.9,8.9,,42.9,-387,-28,7,1030.83,39.1,0
"2016-12-23 22:30:21+00",8.8,9.8,,43.2,-378,-36,9,1030.94,39.1,0
"2016-12-23 22:35:21+00",8.7,8.7,,43.3,-380,-26,12,1030.96,39.3,0
"2016-12-23 22:40:21+00",9.4,9.4,,43.2,-409,-16,13,1031.01,39.6,0
"2016-12-23 22:45:21+00",9.3,10.3,,43.1,-398,-60,5,1030.89,39.7,0
"2016-12-23 22:50:21+00",9.4,9.4,,43,-402,-57,5,1030.86,39.6,0
"2016-12-23 22:55:21+00",9.6,10.6,,42.6,-407,-76,6,1030.68,39.4,0
"2016-12-23 23:00:21+00",8.7,9.7,,41.9,-349,-97,7,1030.78,39.3,0
"2016-12-23 23:05:21+00",9.4,10.4,,41.7,-405,-142,11,1030.88,39.1,0
"2016-12-23 23:10:21+00",8.9,9.9,,41.4,-388,-148,11,1030.96,39.1,0
"2016-12-23 23:15:21+00",10.4,11.4,,41.2,-431,-127,14,1030.88,39.2,0
"2016-12-23 23:20:21+00",9.0,10.0,,41.2,-397,-162,14,1031,39.4,0
"2016-12-23 23:25:21+00",7.6,8.6,,40.4,-273,-181,1,1030.93,39.4,0
"2016-12-23 23:30:21+00",7.3,8.3,,40,-225,-238,-2,1031.07,39.2,0
"2016-12-23 23:35:21+00",8.4,9.4,,39.8,-285,-219,4,1031.08,39,0
"2016-12-23 23:40:21+00",7.4,8.4,,40.3,-310,-159,11,1030.99,38.9,0
"2016-12-23 23:45:21+00",7.4,8.4,,40.3,-255,-188,6,1030.91,38.8,0
"2016-12-23 23:50:21+00",7.5,7.5,,40.4,-283,-174,11,1030.83,38.7,0
"2016-12-23 23:55:21+00",6.4,7.4,,40.5,-268,-133,5,1030.57,38.7,0
